TKJ5KZ EDDH-LTFJ

Flight info

Callsign TKJ5KZ
Flight time 2h 3m
Altitude 35000
Route AMLUH M852 DENIX DCT ZUCKA DCT OMELO DCT ERGOM DCT INVED DCT RASUB DCT BULEN DCT BUVAK DCT RIXEN UN616 GINLI
Aircraft B738/M-V/N

Departure

Time 2026-04-26 20:30
Airport Hamburg Helmut Schmidt Airport (EDDH)

Arrival

Time 2026-04-26 22:33
Airport Istanbul Sabiha Gökçen International Airport (LTFJ)
Time Latitude Longitude Altitude Speed Heading
2026-04-26 20:06 53.63035 10.00338 47 ft 0 kts 124°
2026-04-26 20:19 53.63043 10.00320 47 ft 3 kts 129°
2026-04-26 20:19 53.63058 10.00292 45 ft 3 kts 141°
2026-04-26 20:19 53.63070 10.00278 47 ft 3 kts 151°
2026-04-26 20:20 53.63129 10.00257 46 ft 0 kts 176°
2026-04-26 20:24 53.63117 10.00259 47 ft 4 kts 175°
2026-04-26 20:25 53.63081 10.00261 47 ft 5 kts 189°
2026-04-26 20:25 53.63058 10.00246 47 ft 5 kts 205°
2026-04-26 20:25 53.63015 10.00205 46 ft 5 kts 212°
2026-04-26 20:25 53.62982 10.00168 47 ft 7 kts 213°
2026-04-26 20:26 53.62927 10.00110 47 ft 11 kts 213°
2026-04-26 20:26 53.62866 10.00021 47 ft 12 kts 234°
2026-04-26 20:26 53.62831 9.99911 46 ft 9 kts 244°
2026-04-26 20:26 53.62814 9.99825 44 ft 4 kts 273°
2026-04-26 20:27 53.62819 9.99800 44 ft 2 kts 296°
2026-04-26 20:27 53.62829 9.99782 42 ft 2 kts 320°
2026-04-26 20:27 53.62834 9.99777 43 ft 0 kts 328°
2026-04-26 20:29 53.62934 9.99688 44 ft 47 kts 333°
2026-04-26 20:29 53.63441 9.99249 46 ft 115 kts 333°
2026-04-26 20:29 53.64315 9.98481 138 ft 161 kts 331°
2026-04-26 20:30 53.65325 9.97602 841 ft 164 kts 333°
2026-04-26 20:30 53.66383 9.96701 1463 ft 176 kts 331°
2026-04-26 20:30 53.67520 9.95718 1917 ft 191 kts 330°
2026-04-26 20:30 53.68718 9.94740 2454 ft 201 kts 338°
2026-04-26 20:31 53.70152 9.94523 2895 ft 210 kts
2026-04-26 20:31 53.71621 9.94638 3384 ft 217 kts
2026-04-26 20:31 53.73048 9.95584 3774 ft 229 kts 41°
2026-04-26 20:31 53.73864 9.97838 4383 ft 227 kts 75°
2026-04-26 20:32 53.74160 10.00478 4877 ft 232 kts 81°
2026-04-26 20:32 53.74148 10.03192 5369 ft 235 kts 103°
2026-04-26 20:32 53.73669 10.05789 5990 ft 232 kts 115°
2026-04-26 20:32 53.72622 10.07965 6154 ft 250 kts 139°
2026-04-26 20:33 53.71253 10.10000 6352 ft 273 kts 139°
2026-04-26 20:33 53.69789 10.12165 6784 ft 285 kts 139°
2026-04-26 20:33 53.68276 10.14395 7357 ft 291 kts 139°
2026-04-26 20:33 53.66736 10.16641 7984 ft 294 kts 139°
2026-04-26 20:34 53.65180 10.18919 8603 ft 299 kts 139°
2026-04-26 20:34 53.63603 10.21236 9233 ft 303 kts 139°
2026-04-26 20:34 53.62004 10.23589 9838 ft 307 kts 138°
2026-04-26 20:34 53.60384 10.25971 10422 ft 312 kts 138°
2026-04-26 20:35 53.58712 10.28430 10669 ft 329 kts 138°
2026-04-26 20:35 53.56938 10.31039 10827 ft 348 kts 138°
2026-04-26 20:35 53.55065 10.33793 10962 ft 367 kts 138°
2026-04-26 20:35 53.53101 10.36678 11147 ft 382 kts 138°
2026-04-26 20:36 53.51077 10.39648 11576 ft 390 kts 138°
2026-04-26 20:36 53.49024 10.42655 12129 ft 393 kts 138°
2026-04-26 20:36 53.46950 10.45685 12730 ft 396 kts 138°
2026-04-26 20:36 53.44864 10.48727 13323 ft 399 kts 139°
2026-04-26 20:37 53.42756 10.51795 13911 ft 403 kts 139°
2026-04-26 20:37 53.40622 10.54898 14463 ft 407 kts 139°
2026-04-26 20:37 53.38503 10.57974 15027 ft 410 kts 139°
2026-04-26 20:37 53.36339 10.61111 15597 ft 413 kts 139°
2026-04-26 20:38 53.34154 10.64275 16156 ft 416 kts 139°
2026-04-26 20:38 53.31954 10.67456 16713 ft 420 kts 139°
2026-04-26 20:38 53.29734 10.70660 17258 ft 423 kts 140°
2026-04-26 20:38 53.27494 10.73891 17803 ft 426 kts 140°
2026-04-26 20:39 53.25240 10.77136 18337 ft 430 kts 140°
2026-04-26 20:39 53.23735 10.79299 18695 ft 431 kts 140°
2026-04-26 20:39 53.20679 10.83688 19322 ft 435 kts 140°
2026-04-26 20:39 53.18370 10.86998 19769 ft 439 kts 140°
2026-04-26 20:40 53.16832 10.89200 20067 ft 441 kts 140°
2026-04-26 20:40 53.13734 10.93628 20664 ft 444 kts 140°
2026-04-26 20:40 53.11377 10.96993 21104 ft 447 kts 140°
2026-04-26 20:40 53.09002 11.00378 21531 ft 450 kts 140°
2026-04-26 20:41 53.07418 11.02631 21807 ft 452 kts 140°
2026-04-26 20:41 53.05019 11.06041 22228 ft 455 kts 140°
2026-04-26 20:41 53.02599 11.09476 22630 ft 458 kts 140°
2026-04-26 20:41 53.00166 11.12924 23040 ft 461 kts 141°
2026-04-26 20:42 52.97718 11.16389 23435 ft 464 kts 141°
2026-04-26 20:42 52.95252 11.19872 23821 ft 467 kts 141°
2026-04-26 20:42 52.92767 11.23378 24135 ft 470 kts 141°
2026-04-26 20:42 52.90268 11.26897 24449 ft 472 kts 141°
2026-04-26 20:43 52.87755 11.30431 24781 ft 474 kts 141°
2026-04-26 20:43 52.85270 11.33919 25121 ft 476 kts 141°
2026-04-26 20:43 52.82733 11.37477 25430 ft 478 kts 141°
2026-04-26 20:43 52.80190 11.41034 25737 ft 480 kts 141°
2026-04-26 20:44 52.77635 11.44606 26038 ft 482 kts 141°
2026-04-26 20:44 52.75068 11.48186 26334 ft 484 kts 141°
2026-04-26 20:44 52.72492 11.51774 26628 ft 486 kts 141°
2026-04-26 20:44 52.69901 11.55378 26909 ft 488 kts 141°
2026-04-26 20:45 52.67299 11.58990 27179 ft 489 kts 141°
2026-04-26 20:45 52.64691 11.62606 27457 ft 492 kts 141°
2026-04-26 20:45 52.62064 11.66241 27669 ft 495 kts 141°
2026-04-26 20:45 52.59420 11.69893 27927 ft 496 kts 141°
2026-04-26 20:46 52.56770 11.73549 28204 ft 498 kts 141°
2026-04-26 20:46 52.54111 11.77210 28467 ft 499 kts 141°
2026-04-26 20:46 52.51444 11.80878 28786 ft 499 kts 142°
2026-04-26 20:46 52.48783 11.84531 29178 ft 498 kts 142°
2026-04-26 20:47 52.46132 11.88164 29587 ft 496 kts 142°
2026-04-26 20:47 52.44376 11.90566 29834 ft 495 kts 142°
2026-04-26 20:47 52.40838 11.95399 30265 ft 495 kts 142°
2026-04-26 20:47 52.38225 11.98961 30549 ft 495 kts 142°
2026-04-26 20:48 52.35538 12.02618 30696 ft 498 kts 142°
2026-04-26 20:48 52.32903 12.06198 30840 ft 501 kts 142°
2026-04-26 20:48 52.30220 12.09839 31131 ft 500 kts 142°
2026-04-26 20:48 52.27551 12.13456 31482 ft 497 kts 142°
2026-04-26 20:49 52.24892 12.17054 31774 ft 497 kts 142°
2026-04-26 20:49 52.22229 12.20649 31997 ft 497 kts 142°
2026-04-26 20:49 52.19560 12.24248 32215 ft 498 kts 142°
2026-04-26 20:49 52.16890 12.27842 32483 ft 497 kts 142°
2026-04-26 20:50 52.14225 12.31423 32763 ft 497 kts 142°
2026-04-26 20:50 52.11558 12.35003 32997 ft 496 kts 142°
2026-04-26 20:50 52.08887 12.38581 33288 ft 495 kts 142°
2026-04-26 20:50 52.06230 12.42135 33589 ft 494 kts 142°
2026-04-26 20:51 52.03576 12.45679 33845 ft 493 kts 142°
2026-04-26 20:51 52.00925 12.49214 34058 ft 494 kts 142°
2026-04-26 20:51 51.98275 12.52742 34264 ft 494 kts 142°
2026-04-26 20:51 51.95619 12.56272 34485 ft 493 kts 142°
2026-04-26 20:52 51.92969 12.59788 34713 ft 491 kts 142°
2026-04-26 20:52 51.90328 12.63288 34925 ft 491 kts 142°
2026-04-26 20:52 51.87685 12.66785 35092 ft 491 kts 142°
2026-04-26 20:52 51.85042 12.70275 35242 ft 491 kts 142°
2026-04-26 20:53 51.82390 12.73772 35280 ft 493 kts 142°
2026-04-26 20:53 51.77096 12.80738 35291 ft 493 kts 142°
2026-04-26 20:54 51.71803 12.87682 35283 ft 488 kts 142°
2026-04-26 20:54 51.66540 12.94566 35290 ft 485 kts 143°
2026-04-26 20:55 51.61298 13.01398 35288 ft 484 kts 143°
2026-04-26 20:55 51.56067 13.08196 35290 ft 483 kts 143°
2026-04-26 20:56 51.50834 13.14974 35293 ft 484 kts 143°
2026-04-26 20:56 51.45584 13.21757 35293 ft 485 kts 143°
2026-04-26 20:57 51.40319 13.28539 35294 ft 486 kts 143°
2026-04-26 20:57 51.33455 13.37348 35290 ft 488 kts 143°
2026-04-26 20:58 51.22820 13.50930 35298 ft 490 kts 143°
2026-04-26 20:58 51.12129 13.64500 35293 ft 492 kts 143°
2026-04-26 20:59 51.01415 13.78021 35293 ft 491 kts 144°
2026-04-26 20:59 50.90700 13.91471 35287 ft 490 kts 143°
2026-04-26 21:00 50.82868 14.01458 35280 ft 491 kts 136°
2026-04-26 21:00 50.74252 14.16227 35285 ft 489 kts 134°
2026-04-26 21:01 50.65061 14.32021 35280 ft 487 kts 134°
2026-04-26 21:01 50.55835 14.47608 35272 ft 485 kts 134°
2026-04-26 21:02 50.46633 14.63066 35274 ft 483 kts 135°
2026-04-26 21:02 50.37435 14.78428 35262 ft 481 kts 135°
2026-04-26 21:03 50.28265 14.93649 35277 ft 479 kts 134°
2026-04-26 21:03 50.19106 15.08761 35270 ft 478 kts 135°
2026-04-26 21:04 50.09954 15.23773 35267 ft 477 kts 135°
2026-04-26 21:04 50.00847 15.38621 35280 ft 477 kts 135°
2026-04-26 21:05 49.91642 15.53543 35270 ft 478 kts 135°
2026-04-26 21:05 49.82399 15.68437 35274 ft 480 kts 135°
2026-04-26 21:06 49.73106 15.83326 35265 ft 481 kts 135°
2026-04-26 21:06 49.63782 15.98174 35271 ft 482 kts 135°
2026-04-26 21:07 49.54411 16.13012 35275 ft 483 kts 136°
2026-04-26 21:07 49.45058 16.27735 35275 ft 484 kts 136°
2026-04-26 21:08 49.35624 16.42498 35279 ft 485 kts 137°
2026-04-26 21:08 49.26157 16.57227 35278 ft 486 kts 137°
2026-04-26 21:09 49.16630 16.71961 35278 ft 487 kts 137°
2026-04-26 21:09 49.07082 16.86646 35297 ft 488 kts 137°
2026-04-26 21:10 48.97478 17.01330 35272 ft 489 kts 137°
2026-04-26 21:10 48.87829 17.15998 35268 ft 490 kts 137°
2026-04-26 21:11 48.78151 17.30626 35284 ft 491 kts 138°
2026-04-26 21:11 48.68494 17.45137 35287 ft 492 kts 138°
2026-04-26 21:12 48.58736 17.59716 35281 ft 493 kts 138°
2026-04-26 21:12 48.48965 17.74232 35277 ft 493 kts 138°
2026-04-26 21:13 48.39160 17.88716 35276 ft 493 kts 138°
2026-04-26 21:13 48.29355 18.03118 35259 ft 493 kts 139°
2026-04-26 21:14 48.19538 18.17456 35272 ft 492 kts 139°
2026-04-26 21:14 48.09717 18.31721 35268 ft 492 kts 139°
2026-04-26 21:15 47.99877 18.45934 35275 ft 491 kts 139°
2026-04-26 21:15 47.90033 18.60081 35264 ft 491 kts 139°
2026-04-26 21:16 47.81273 18.72595 35268 ft 491 kts 140°
2026-04-26 21:16 47.72469 18.82223 35258 ft 487 kts 149°
2026-04-26 21:17 47.61279 18.93649 35272 ft 487 kts 148°
2026-04-26 21:17 47.50165 19.05188 35254 ft 487 kts 148°
2026-04-26 21:18 47.39140 19.16581 35261 ft 485 kts 148°
2026-04-26 21:18 47.28063 19.27959 35257 ft 484 kts 149°
2026-04-26 21:19 47.17031 19.39233 35251 ft 482 kts 149°
2026-04-26 21:19 47.06006 19.50442 35240 ft 481 kts 149°
2026-04-26 21:20 46.95000 19.61575 35243 ft 480 kts 149°
2026-04-26 21:20 46.84004 19.72643 35265 ft 479 kts 149°
2026-04-26 21:21 46.73014 19.83647 35255 ft 478 kts 149°
2026-04-26 21:21 46.62093 19.94530 35236 ft 478 kts 149°
2026-04-26 21:22 46.51120 20.05411 35229 ft 477 kts 149°
2026-04-26 21:22 46.40137 20.16249 35222 ft 477 kts 149°
2026-04-26 21:23 46.23662 20.32420 35228 ft 476 kts 149°
2026-04-26 21:23 46.16638 20.39907 35227 ft 481 kts 138°
2026-04-26 21:24 46.12109 20.48893 35251 ft 485 kts 122°
2026-04-26 21:24 46.05473 20.65859 35238 ft 486 kts 122°
2026-04-26 21:25 45.99862 20.79909 35228 ft 487 kts 122°
2026-04-26 21:25 45.91898 20.99617 35225 ft 488 kts 122°
2026-04-26 21:26 45.86195 21.13653 35216 ft 490 kts 122°
2026-04-26 21:26 45.79308 21.30510 35207 ft 490 kts 122°
2026-04-26 21:27 45.72393 21.47335 35217 ft 490 kts 123°
2026-04-26 21:27 45.65460 21.64098 35215 ft 489 kts 123°
2026-04-26 21:28 45.58556 21.80695 35213 ft 488 kts 123°
2026-04-26 21:28 45.51606 21.97301 35215 ft 487 kts 123°
2026-04-26 21:29 45.47946 22.06008 35219 ft 486 kts 123°
2026-04-26 21:29 45.44470 22.14253 35225 ft 485 kts 123°
2026-04-26 21:30 45.40992 22.22476 35217 ft 484 kts 123°
2026-04-26 21:30 45.37510 22.30685 35222 ft 485 kts 123°
2026-04-26 21:31 45.33914 22.38795 35244 ft 485 kts 125°
2026-04-26 21:31 45.30189 22.46804 35398 ft 486 kts 126°
2026-04-26 21:32 45.26483 22.54779 35540 ft 487 kts 125°
2026-04-26 21:32 45.22770 22.62823 35679 ft 487 kts 125°
2026-04-26 21:33 45.19065 22.70861 35820 ft 486 kts 125°
2026-04-26 21:33 45.15363 22.78876 35968 ft 486 kts 125°
2026-04-26 21:34 45.11651 22.86887 36109 ft 486 kts 125°
2026-04-26 21:34 45.07941 22.94869 36259 ft 485 kts 125°
2026-04-26 21:35 45.04224 23.02842 36387 ft 485 kts 125°
2026-04-26 21:35 45.00507 23.10793 36550 ft 484 kts 126°
2026-04-26 21:36 44.96791 23.18721 36680 ft 483 kts 126°
2026-04-26 21:36 44.93101 23.26572 36842 ft 483 kts 126°
2026-04-26 21:37 44.89382 23.34461 36988 ft 482 kts 126°
2026-04-26 21:37 44.87526 23.38390 37109 ft 481 kts 126°
2026-04-26 21:37 44.85667 23.42321 37156 ft 482 kts 126°
2026-04-26 21:38 44.81926 23.50211 37167 ft 487 kts 126°
2026-04-26 21:38 44.78143 23.58171 37165 ft 491 kts 126°
2026-04-26 21:39 44.74331 23.66172 37157 ft 493 kts 126°
2026-04-26 21:39 44.70516 23.74157 37146 ft 489 kts 126°
2026-04-26 21:40 44.66744 23.82032 37137 ft 483 kts 126°
2026-04-26 21:40 44.63016 23.89788 37149 ft 481 kts 126°
2026-04-26 21:41 44.59271 23.97559 37141 ft 480 kts 126°
2026-04-26 21:41 44.55530 24.05303 37153 ft 479 kts 126°
2026-04-26 21:42 44.51786 24.13032 37158 ft 479 kts 126°
2026-04-26 21:42 44.48038 24.20748 37155 ft 479 kts 126°
2026-04-26 21:43 44.44282 24.28461 37153 ft 480 kts 126°
2026-04-26 21:43 44.40509 24.36188 37151 ft 480 kts 126°
2026-04-26 21:44 44.36730 24.43906 37134 ft 481 kts 126°
2026-04-26 21:44 44.32969 24.51567 37139 ft 481 kts 126°
2026-04-26 21:45 44.29179 24.59268 37139 ft 481 kts 126°
2026-04-26 21:45 44.25382 24.66961 37137 ft 481 kts 127°
2026-04-26 21:46 44.21586 24.74631 37142 ft 480 kts 127°
2026-04-26 21:46 44.17791 24.82280 37132 ft 479 kts 126°
2026-04-26 21:47 44.13996 24.89911 37142 ft 479 kts 127°
2026-04-26 21:47 44.10199 24.97523 37139 ft 478 kts 127°
2026-04-26 21:48 44.06423 25.05074 37139 ft 478 kts 127°
2026-04-26 21:48 44.02620 25.12659 37141 ft 478 kts 127°
2026-04-26 21:49 43.98850 25.20161 37225 ft 472 kts 127°
2026-04-26 21:49 43.95062 25.27676 37162 ft 477 kts 127°
2026-04-26 21:50 43.91887 25.33959 37151 ft 480 kts 127°
2026-04-26 21:50 43.87406 25.42808 37140 ft 478 kts 127°
2026-04-26 21:51 43.83583 25.50337 37148 ft 477 kts 127°
2026-04-26 21:51 43.79768 25.57831 37147 ft 476 kts 127°
2026-04-26 21:52 43.75950 25.65309 37149 ft 475 kts 127°
2026-04-26 21:52 43.72161 25.72711 37156 ft 474 kts 127°
2026-04-26 21:53 43.68348 25.80145 37157 ft 474 kts 127°
2026-04-26 21:53 43.64526 25.87575 37156 ft 474 kts 127°
2026-04-26 21:54 43.60695 25.95003 37167 ft 475 kts 127°
2026-04-26 21:54 43.56859 26.02423 37162 ft 475 kts 127°
2026-04-26 21:55 43.53014 26.09841 37168 ft 476 kts 127°
2026-04-26 21:55 43.49184 26.17213 37170 ft 477 kts 127°
2026-04-26 21:56 43.45312 26.24646 37155 ft 477 kts 127°
2026-04-26 21:56 43.41435 26.32069 37168 ft 477 kts 127°
2026-04-26 21:57 43.37552 26.39487 37171 ft 478 kts 127°
2026-04-26 21:57 43.33662 26.46899 37171 ft 478 kts 127°
2026-04-26 21:58 43.29766 26.54303 37174 ft 478 kts 127°
2026-04-26 21:58 43.25864 26.61701 37173 ft 478 kts 127°
2026-04-26 21:59 43.21957 26.69089 37170 ft 478 kts 127°
2026-04-26 21:59 43.18044 26.76470 37171 ft 478 kts 127°
2026-04-26 22:00 43.14157 26.83785 37169 ft 478 kts 127°
2026-04-26 22:00 43.10241 26.91133 37165 ft 477 kts 128°
2026-04-26 22:01 43.06326 26.98465 37157 ft 476 kts 128°
2026-04-26 22:01 43.02413 27.05772 37163 ft 475 kts 128°
2026-04-26 22:02 42.99167 27.11822 37150 ft 474 kts 128°
2026-04-26 22:02 42.94610 27.20294 37151 ft 473 kts 128°
2026-04-26 22:03 42.90722 27.27501 37157 ft 471 kts 128°
2026-04-26 22:03 42.86858 27.34648 37153 ft 471 kts 128°
2026-04-26 22:04 42.82969 27.41824 37165 ft 470 kts 128°
2026-04-26 22:04 42.79072 27.48997 37164 ft 471 kts 128°
2026-04-26 22:05 42.75172 27.56161 37163 ft 471 kts 128°
2026-04-26 22:05 42.71257 27.63334 37164 ft 472 kts 128°
2026-04-26 22:06 42.67329 27.70511 37159 ft 474 kts 127°
2026-04-26 22:06 42.63393 27.77688 37162 ft 475 kts 127°
2026-04-26 22:07 42.59432 27.84890 37157 ft 477 kts 127°
2026-04-26 22:07 42.56128 27.90886 37160 ft 478 kts 127°
2026-04-26 22:08 42.51452 27.99354 37150 ft 481 kts 128°
2026-04-26 22:08 42.47450 28.06580 37146 ft 482 kts 128°
2026-04-26 22:09 42.43423 28.13835 37141 ft 480 kts 128°
2026-04-26 22:09 42.39392 28.21080 37144 ft 482 kts 128°
2026-04-26 22:10 42.35366 28.28300 37122 ft 480 kts 128°
2026-04-26 22:10 42.31339 28.35502 37119 ft 480 kts 128°
2026-04-26 22:11 42.27343 28.42634 37131 ft 476 kts 128°
2026-04-26 22:11 42.23348 28.49749 36878 ft 478 kts 127°
2026-04-26 22:12 42.21332 28.53332 36426 ft 478 kts 127°
2026-04-26 22:12 42.19326 28.56896 35862 ft 476 kts 127°
2026-04-26 22:12 42.17323 28.60453 35254 ft 476 kts 126°
2026-04-26 22:12 42.15319 28.64009 34643 ft 477 kts 126°
2026-04-26 22:13 42.13306 28.67575 33988 ft 478 kts 126°
2026-04-26 22:13 42.11277 28.71141 33271 ft 479 kts 128°
2026-04-26 22:13 42.08848 28.74192 32559 ft 480 kts 148°
2026-04-26 22:13 42.05859 28.76146 31920 ft 478 kts 162°
2026-04-26 22:14 42.03724 28.76855 31427 ft 478 kts 173°
2026-04-26 22:14 42.00409 28.77113 30737 ft 477 kts 180°
2026-04-26 22:14 41.97085 28.77145 29925 ft 480 kts 181°
2026-04-26 22:14 41.93747 28.77171 29276 ft 477 kts 180°
2026-04-26 22:15 41.90442 28.77251 28668 ft 473 kts 180°
2026-04-26 22:15 41.87161 28.77372 28130 ft 469 kts 179°
2026-04-26 22:15 41.83915 28.77611 27580 ft 464 kts 176°
2026-04-26 22:15 41.80700 28.77965 27019 ft 462 kts 175°
2026-04-26 22:16 41.77519 28.78329 26511 ft 456 kts 176°
2026-04-26 22:16 41.74366 28.78661 26132 ft 449 kts 176°
2026-04-26 22:16 41.71295 28.79012 25967 ft 437 kts 171°
2026-04-26 22:16 41.68502 28.80371 25823 ft 422 kts 144°
2026-04-26 22:17 41.66184 28.82683 25303 ft 420 kts 145°
2026-04-26 22:17 41.63874 28.85038 24866 ft 416 kts 135°
2026-04-26 22:17 41.61878 28.87808 24448 ft 411 kts 127°
2026-04-26 22:17 41.60094 28.90783 24026 ft 408 kts 127°
2026-04-26 22:18 41.58365 28.93785 23538 ft 408 kts 124°
2026-04-26 22:18 41.56642 28.96787 23056 ft 406 kts 125°
2026-04-26 22:18 41.54921 28.99760 22590 ft 403 kts 127°
2026-04-26 22:18 41.53201 29.02693 22160 ft 399 kts 127°
2026-04-26 22:19 41.51489 29.05590 21721 ft 396 kts 127°
2026-04-26 22:19 41.49765 29.08443 21290 ft 393 kts 132°
2026-04-26 22:19 41.47651 29.10637 20854 ft 392 kts 153°
2026-04-26 22:19 41.45207 29.12217 20458 ft 389 kts 155°
2026-04-26 22:20 41.42772 29.13802 19825 ft 392 kts 149°
2026-04-26 22:20 41.40616 29.16043 19224 ft 394 kts 133°
2026-04-26 22:20 41.38971 29.18953 18583 ft 391 kts 119°
2026-04-26 22:20 41.37825 29.22213 17919 ft 387 kts 111°
2026-04-26 22:21 41.36795 29.25513 17206 ft 385 kts 112°
2026-04-26 22:21 41.35750 29.28799 16505 ft 382 kts 112°
2026-04-26 22:21 41.34700 29.32023 15822 ft 378 kts 113°
2026-04-26 22:21 41.33652 29.35207 15156 ft 374 kts 113°
2026-04-26 22:22 41.32632 29.38371 14499 ft 370 kts 116°
2026-04-26 22:22 41.31221 29.41210 13851 ft 369 kts 134°
2026-04-26 22:22 41.29307 29.43409 13109 ft 369 kts 146°
2026-04-26 22:22 41.27227 29.45432 12315 ft 369 kts 144°
2026-04-26 22:23 41.25190 29.47472 11546 ft 366 kts 143°
2026-04-26 22:23 41.23181 29.49525 10857 ft 361 kts 143°
2026-04-26 22:23 41.21254 29.51518 10694 ft 340 kts 142°
2026-04-26 22:23 41.19436 29.53408 10544 ft 321 kts 142°
2026-04-26 22:24 41.17725 29.55190 10434 ft 304 kts 142°
2026-04-26 22:24 41.16085 29.56898 10124 ft 296 kts 142°
2026-04-26 22:24 41.14472 29.58580 9635 ft 294 kts 142°
2026-04-26 22:24 41.12862 29.60259 9085 ft 294 kts 142°
2026-04-26 22:25 41.11255 29.61936 8573 ft 293 kts 142°
2026-04-26 22:25 41.09655 29.63604 8080 ft 292 kts 142°
2026-04-26 22:25 41.08056 29.65270 7549 ft 293 kts 142°
2026-04-26 22:25 41.06472 29.66914 7067 ft 292 kts 142°
2026-04-26 22:26 41.04872 29.68557 6613 ft 291 kts 142°
2026-04-26 22:26 41.03170 29.69989 6127 ft 290 kts 160°
2026-04-26 22:26 41.01198 29.70363 5648 ft 286 kts 189°
2026-04-26 22:26 40.99363 29.69536 5228 ft 277 kts 217°
2026-04-26 22:27 40.98068 29.67738 4809 ft 268 kts 245°
2026-04-26 22:27 40.97561 29.65446 4597 ft 252 kts 269°
2026-04-26 22:27 40.97561 29.63199 4490 ft 237 kts 275°
2026-04-26 22:27 40.97632 29.61082 4383 ft 224 kts 276°
2026-04-26 22:28 40.97715 29.59053 4145 ft 219 kts 276°
2026-04-26 22:28 40.97803 29.57082 3878 ft 216 kts 275°
2026-04-26 22:28 40.97534 29.55148 3550 ft 218 kts 244°
2026-04-26 22:28 40.96815 29.53385 3562 ft 214 kts 252°
2026-04-26 22:29 40.96296 29.51595 3523 ft 203 kts 251°
2026-04-26 22:29 40.95711 29.49917 3304 ft 196 kts 248°
2026-04-26 22:29 40.95119 29.48314 3019 ft 192 kts 248°
2026-04-26 22:29 40.94544 29.46757 2733 ft 184 kts 248°
2026-04-26 22:30 40.94000 29.45281 2466 ft 172 kts 248°
2026-04-26 22:30 40.93488 29.43887 2179 ft 163 kts 248°
2026-04-26 22:30 40.93016 29.42608 1940 ft 149 kts 248°
2026-04-26 22:30 40.92580 29.41421 1744 ft 143 kts 246°
2026-04-26 22:31 40.92144 29.40246 1510 ft 141 kts 245°
2026-04-26 22:31 40.91721 29.39088 1280 ft 138 kts 246°
2026-04-26 22:31 40.91297 29.37921 1111 ft 145 kts 244°
2026-04-26 22:31 40.90846 29.36718 907 ft 150 kts 244°
2026-04-26 22:32 40.90398 29.35480 654 ft 149 kts 244°
2026-04-26 22:32 40.89954 29.34263 392 ft 144 kts 243°
2026-04-26 22:32 40.89544 29.33123 292 ft 120 kts 244°
2026-04-26 22:32 40.89286 29.32425 301 ft 61 kts 245°
2026-04-26 22:33 40.89156 29.32061 302 ft 27 kts 251°
2026-04-26 22:33 40.89129 29.31727 301 ft 15 kts 283°
2026-04-26 22:33 40.89136 29.31651 300 ft 5 kts 272°
2026-04-26 22:34 40.89136 29.31600 300 ft 6 kts 270°
2026-04-26 22:34 40.89136 29.31512 300 ft 11 kts 271°
2026-04-26 22:34 40.89176 29.31439 302 ft 10 kts 335°
2026-04-26 22:34 40.89240 29.31455 302 ft 10 kts 49°
2026-04-26 22:35 40.89276 29.31542 301 ft 11 kts 63°
2026-04-26 22:35 40.89309 29.31631 300 ft 11 kts 64°
2026-04-26 22:35 40.89341 29.31719 302 ft 11 kts 64°
2026-04-26 22:35 40.89380 29.31827 303 ft 14 kts 63°
2026-04-26 22:36 40.89424 29.31944 302 ft 14 kts 64°
2026-04-26 22:36 40.89466 29.32057 302 ft 13 kts 64°
2026-04-26 22:36 40.89505 29.32164 306 ft 13 kts 64°
2026-04-26 22:36 40.89543 29.32270 304 ft 13 kts 65°
2026-04-26 22:37 40.89601 29.32336 303 ft 12 kts 351°
2026-04-26 22:37 40.89678 29.32292 303 ft 12 kts 334°
2026-04-26 22:37 40.89751 29.32245 304 ft 12 kts 334°
2026-04-26 22:37 40.89823 29.32199 306 ft 11 kts 334°
2026-04-26 22:38 40.89890 29.32156 309 ft 9 kts 334°
2026-04-26 22:38 40.89924 29.32134 310 ft 4 kts 335°
2026-04-26 22:38 40.89948 29.32136 310 ft 4 kts 29°
2026-04-26 22:38 40.89963 29.32163 309 ft 4 kts 61°
2026-04-26 22:39 40.89973 29.32188 310 ft 2 kts 63°
2026-04-26 22:39 40.89977 29.32198 310 ft 0 kts 64°